[[{"header":{"parameterUnit":"m.s-1","parameterCategory":1,"la1":30.2991,"la2":30.254,"lo1":-89.0895,"lo2":-89.0444,"dy":0.0017,"dx":0.0017,"nx":28,"ny":28,"refTime":"2025-09-01T09:00:00:Z","depth":0,"parameterNumber":2,"parameterNumberName":"U-component_of_WINDS"},"data":[0,0,0,0,0,0,0,0,0,0,0,0,0,0,0,0,0,0,0,0,0,0,0,0,0,0,0,0,0,0,0,0,0,0,0,0,0,0,0,0,0,0,0,0,0,0,0,0,0,0,0,0,0,0,0,0,0,0,-4.7405,-4.7405,0,-4.7364,-4.7364,-4.7363,-4.7216,-4.7213,-4.721,-4.7206,-4.7167,-4.7169,-4.7171,0,0,0,0,0,0,0,0,0,0,0,0,0,-4.7359,-4.7361,-4.7405,-4.7405,-4.7404,-4.7365,-4.7364,-4.7363,-4.7217,-4.7213,-4.7209,-4.7205,-4.7166,-4.7168,-4.7171,0,0,0,0,0,0,0,0,0,0,0,0,0,-4.7355,-4.7361,-4.7405,-4.7326,-4.7319,-4.7365,-4.7364,-4.7363,-4.7218,-4.7213,-4.7208,-4.7203,-4.7165,-4.7168,-4.7171,-4.7291,0,0,-4.7181,-4.7182,0,0,0,0,0,0,0,0,-4.7355,-4.7357,-4.7338,-4.7332,-4.7324,-4.729,-4.7333,-4.7339,-4.7219,-4.7256,-4.7206,-4.7201,-4.7212,-4.7211,-4.7214,-4.7289,-4.7287,-4.7181,-4.7183,-4.7184,-4.7185,0,0,0,0,0,0,0,-4.7356,-4.7358,-4.7389,-4.7338,-4.7329,-4.7294,-4.7288,-4.7333,-4.7263,-4.7253,-4.7242,-4.7239,-4.7207,-4.7212,-4.7212,-4.7286,-4.7181,-4.7184,-4.7185,-4.7187,-4.7458,-4.7463,0,0,0,0,0,0,-4.7367,-4.7359,-4.739,-4.7388,-4.7327,-4.7299,-4.7292,-4.7306,-4.7262,-4.725,-4.7243,-4.7232,-4.7209,-4.7209,-4.721,-4.7347,-4.7184,-4.7187,-4.7189,-4.7453,-4.7459,-4.7465,0,0,0,0,0,0,-4.7367,-4.7371,-4.7392,-4.737,-4.737,-4.7305,-4.7322,-4.7308,-4.7312,-4.7255,-4.7242,-4.7261,-4.7205,-4.7206,-4.7272,-4.7344,-4.7188,-4.7191,-4.7446,-4.7455,-4.7462,-4.7623,0,0,0,0,0,0,-4.7366,-4.7372,-4.7416,-4.7373,-4.7372,-4.7454,-4.7326,-4.7311,-4.7318,-4.7303,-4.7268,-4.7257,-4.7201,-4.7268,-4.7275,-4.7345,-4.7194,-4.744,-4.745,-4.746,-4.7611,-4.7636,-4.7657,0,0,0,0,0,-4.7365,-4.7463,-4.7419,-4.7423,-4.7426,-4.7458,-4.7458,-4.7391,-4.7324,-4.7368,-4.7332,-4.7258,-4.7336,-4.7276,-4.7283,-4.7355,-4.7435,-4.7447,-4.7459,-4.7601,-4.7631,-4.7656,0,0,0,0,0,0,-4.7516,-4.7456,-4.7406,-4.7493,-4.7482,-4.7433,-4.7486,-4.7425,-4.7433,-4.7419,-4.7336,-4.7329,-4.7407,-4.7387,-4.7323,-4.7469,-4.7373,-4.7387,-4.7479,-4.7507,-4.7529,-4.7532,-4.7196,0,0,0,0,0,-4.756,-4.7591,-4.7536,-4.7619,-4.7616,-4.7553,-4.7564,-4.7514,-4.7499,-4.7494,-4.7462,-4.7451,-4.7473,-4.7489,-4.7505,-4.7608,-4.7599,-4.7661,-4.7684,-4.7703,-4.7716,-4.777,-4.7797,-4.7505,-4.7505,-4.7504,0,0,-4.765,-4.7621,-4.7645,-4.7648,-4.7634,-4.7669,-4.755,-4.7591,-4.7616,-4.75,-4.756,-4.7537,-4.752,-4.7605,-4.7641,-4.7591,-4.7795,-4.7719,-4.7734,-4.7736,-4.7785,-4.7813,-4.7838,-4.7513,-4.7511,-4.751,0,0,-4.7832,-4.7813,-4.7879,-4.7868,-4.7847,-4.7805,-4.7822,-4.7783,-4.7763,-4.7822,-4.7736,-4.7765,-4.7804,-4.7796,-4.7796,-4.7978,-4.7911,-4.7986,-4.8105,-4.8159,-4.8182,-4.8202,-4.8267,-4.8291,-4.7999,-4.8,-4.8,0,-4.7947,-4.7995,-4.7922,-4.7969,-4.7973,-4.787,-4.7938,-4.793,-4.7917,-4.7923,-4.7867,-4.7915,-4.7896,-4.7978,-4.8022,-4.8027,-4.8043,-4.7989,-4.8184,-4.8203,-4.8221,-4.8282,-4.8307,-4.8009,-4.8008,-4.8007,-4.8006,0,-4.8137,-4.8172,-4.8229,-4.8218,-4.8229,-4.8287,-4.8223,-4.8243,-4.8193,-4.8157,-4.8219,-4.8193,-4.8203,-4.8219,-4.817,-4.8295,-4.8265,-4.8199,-4.81,-4.8259,-4.8315,-4.8338,-4.8022,-4.8019,-4.8016,-4.8014,0,0,-4.8411,-4.8361,-4.8383,-4.8378,-4.8349,-4.8375,-4.8429,-4.8438,-4.8457,-4.8452,-4.8496,-4.8532,-4.8471,-4.8472,-4.8421,-4.8468,-4.8615,-4.8396,-4.8394,-4.8437,-4.8752,-4.8802,-4.883,-4.8571,-4.8575,-4.8578,-4.8753,0,-4.8584,-4.8672,-4.8609,-4.8707,-4.8739,-4.8643,-4.869,-4.8678,-4.8647,-4.8671,-4.8636,-4.8663,-4.858,-4.858,-4.8623,-4.8588,-4.8677,-4.8575,-4.8611,-4.8613,-4.8617,-4.8859,-4.8911,-4.9077,-4.8774,-4.8778,-4.8781,0,-4.8797,-4.8801,-4.8904,-4.8869,-4.888,-4.8924,-4.8928,-4.8952,-4.8937,-4.8911,-4.8914,-4.8852,-4.8903,-4.8808,-4.8878,-4.881,-4.8821,-4.8807,-4.8812,-4.8812,-4.8706,-4.8865,-4.9129,-4.9154,-4.8814,-4.8812,-4.8809,0,-4.8987,-4.9019,-4.9084,-4.9082,-4.9044,-4.9077,-4.9063,-4.9043,-4.9053,-4.9058,-4.9064,-4.9075,-4.9081,-4.9092,-4.9035,-4.897,-4.9113,-4.9012,-4.9093,-4.9095,-4.9126,-4.9125,-4.9395,-4.9136,-4.9135,-4.9135,-4.9134,0,-4.9185,-4.9252,-4.9169,-4.9209,-4.9281,-4.9209,-4.9283,-4.9258,-4.9242,-4.9277,-4.9195,-4.9229,-4.9152,-4.9179,-4.9135,-4.92,-4.9204,-4.9185,-4.9172,-4.9192,-4.9194,-4.9197,-4.9184,-4.9141,-4.914,-4.9139,-4.9137,0,-4.9409,-4.9356,-4.9421,-4.938,-4.9371,-4.9426,-4.9391,-4.9428,-4.9392,-4.9437,-4.9443,-4.9388,-4.9415,-4.936,-4.938,-4.935,-4.9443,-4.9412,-4.9448,-4.9438,-4.9522,-4.9515,-4.9803,-4.9837,-4.9557,-4.956,-4.9562,0,-4.9539,-4.9587,-4.9552,-4.957,-4.956,-4.9589,-4.9599,-4.9531,-4.9546,-4.9534,-4.9572,-4.9593,-4.9606,-4.9655,-4.9616,-4.9632,-4.9601,-4.9701,-4.9603,-4.9621,-4.9602,-4.96,-4.9605,-4.9721,-4.9724,-4.9727,-4.9729,0,-4.9775,-4.9747,-4.9765,-4.9775,-4.979,-4.9794,-4.9793,-4.9812,-4.974,-4.9761,-4.9788,-4.9798,-4.9819,-4.9841,-4.9848,-4.9834,-4.9771,-4.9761,-4.978,-4.9801,-4.9819,-4.981,-4.9502,-4.9754,-4.9752,-4.975,-4.9749,-4.9748,-4.9955,-4.9994,-4.9976,-4.9999,-4.9992,-4.9993,-5.0025,-4.9994,-5.0015,-5.0027,-4.9986,-5.0023,-5.0009,-5.0012,-5.0005,-5.0034,-4.9989,-5.0017,-5.0024,-5.0032,-5.0046,-4.9816,-5.0035,-5.0034,-5.0033,-5.0032,-5.0032,0,-5.0187,-5.0171,-5.0193,-5.0194,-5.0213,-5.0152,-5.0148,-5.0168,-5.0202,-5.0194,-5.0209,-5.0241,-5.0263,-5.0227,-5.0243,-5.0273,-5.0245,-5.028,-5.0276,-5.0274,-5.0085,-5.0066,-5.0303,-5.0303,-5.0303,-5.0303,-5.0303,-5.0302,-5.0309,-5.0373,-5.0343,-5.0403,-5.0386,-5.0422,-5.0425,-5.0427,-5.042,-5.046,-5.0477,-5.0454,-5.0435,-5.045,-5.0468,-5.0457,-5.0466,-5.0512,-5.0491,-5.0314,-5.0288,-5.0262,-5.0244,-5.0515,-5.0515,-5.0678,-5.068,-5.0681]},{"header":{"parameterUnit":"m.s-1","parameterCategory":1,"la1":30.2991,"la2":30.254,"lo1":-89.0895,"lo2":-89.0444,"dy":0.0017,"dx":0.0017,"nx":28,"ny":28,"refTime":"2025-09-01T09:00:00:Z","depth":0,"parameterNumber":3,"parameterNumberName":"V-component_of_WINDS"},"data":[0,0,0,0,0,0,0,0,0,0,0,0,0,0,0,0,0,0,0,0,0,0,0,0,0,0,0,0,0,0,0,0,0,0,0,0,0,0,0,0,0,0,0,0,0,0,0,0,0,0,0,0,0,0,0,0,0,0,0.9942,0.9941,0,0.9892,0.9892,0.9891,0.9898,0.9899,0.99,0.99,0.9845,0.9843,0.9841,0,0,0,0,0,0,0,0,0,0,0,0,0,1.0039,1.0037,0.9942,0.9941,0.9941,0.9892,0.9892,0.9891,0.9898,0.9899,0.99,0.9901,0.9846,0.9843,0.9841,0,0,0,0,0,0,0,0,0,0,0,0,0,0.9994,1.0037,0.9942,0.9938,0.9937,0.9893,0.9892,0.9891,0.9897,0.9899,0.99,0.9901,0.9847,0.9843,0.984,0.9794,0,0,0.983,0.9828,0,0,0,0,0,0,0,0,0.9996,0.999,0.9939,0.9938,0.9937,0.9903,0.9906,0.9858,0.9897,0.9912,0.99,0.9902,0.9863,0.9858,0.9846,0.9792,0.979,0.983,0.9828,0.9826,0.9825,0,0,0,0,0,0,0,1.0,0.9992,0.9922,0.9939,0.9937,0.9938,0.9933,0.9897,0.9881,0.9911,0.9912,0.9906,0.9863,0.9849,0.9845,0.9789,0.983,0.9827,0.9825,0.9823,0.9695,0.9694,0,0,0,0,0,0,1.0004,0.9995,0.9924,0.9921,0.9971,0.9935,0.993,0.9912,0.9882,0.9878,0.9905,0.9906,0.9855,0.9849,0.9843,0.9787,0.9826,0.9823,0.9821,0.9696,0.9695,0.9693,0,0,0,0,0,0,1.0006,0.9998,0.9926,0.9958,0.9949,0.9932,0.9913,0.9911,0.9898,0.9877,0.9874,0.9894,0.9855,0.9848,0.9807,0.9785,0.9821,0.9818,0.9698,0.9696,0.9694,0.9675,0,0,0,0,0,0,1.0009,0.9998,0.9981,0.9958,0.9947,0.9891,0.9912,0.9909,0.9892,0.9894,0.9866,0.9863,0.9856,0.9812,0.9804,0.9781,0.9816,0.97,0.9697,0.9695,0.9678,0.9673,0.9669,0,0,0,0,0,1.0012,0.9977,0.998,0.9972,0.9926,0.989,0.9884,0.9877,0.9891,0.9873,0.986,0.9864,0.979,0.9808,0.9798,0.9775,0.9701,0.9698,0.9695,0.968,0.9674,0.9669,0,0,0,0,0,0,0.9996,0.9974,0.9977,0.9933,0.9914,0.9891,0.9868,0.9871,0.9846,0.9848,0.9841,0.9835,0.9793,0.978,0.9801,0.9729,0.9747,0.9742,0.9739,0.9733,0.9729,0.9731,0.9813,0,0,0,0,0,0.9988,0.9962,0.9944,0.9906,0.9897,0.9884,0.9869,0.9866,0.9845,0.9836,0.982,0.9798,0.977,0.9751,0.9724,0.9677,0.9671,0.9656,0.9652,0.9648,0.9643,0.9617,0.961,0.9683,0.9683,0.9683,0,0,0.997,0.9955,0.9938,0.9903,0.9887,0.986,0.9877,0.9847,0.9826,0.9831,0.9791,0.9779,0.9754,0.971,0.969,0.9698,0.9622,0.9644,0.9642,0.9638,0.9613,0.9606,0.96,0.9681,0.9681,0.9682,0,0,0.9922,0.9909,0.9876,0.9861,0.9838,0.9831,0.9823,0.9801,0.9793,0.9754,0.9758,0.9732,0.9684,0.9666,0.9651,0.96,0.9602,0.9591,0.9566,0.9541,0.9535,0.953,0.951,0.9504,0.9587,0.9587,0.9587,0,0.9902,0.9861,0.9859,0.9828,0.9813,0.9819,0.9785,0.977,0.9739,0.9728,0.9738,0.9679,0.9662,0.9614,0.9602,0.959,0.958,0.9593,0.9537,0.9531,0.9526,0.9508,0.95,0.9585,0.9585,0.9586,0.9586,0,0.9837,0.9809,0.9785,0.9757,0.9739,0.9707,0.9699,0.9681,0.9681,0.9672,0.9632,0.9614,0.9583,0.9572,0.9571,0.9524,0.953,0.9539,0.9556,0.9518,0.95,0.9493,0.9583,0.9584,0.9584,0.9585,0,0,0.9774,0.9747,0.9738,0.9726,0.9703,0.968,0.9649,0.9621,0.9605,0.9585,0.9557,0.9518,0.9527,0.9509,0.9507,0.9485,0.9444,0.9496,0.9495,0.9486,0.939,0.9382,0.9374,0.9447,0.9446,0.9445,0.9392,0,0.9723,0.9669,0.9667,0.9617,0.9591,0.9598,0.9571,0.9553,0.9545,0.9521,0.9511,0.9483,0.9497,0.9487,0.9466,0.9454,0.9425,0.9458,0.942,0.9418,0.9423,0.9365,0.9356,0.9306,0.9385,0.9384,0.9383,0,0.9654,0.9634,0.9582,0.9563,0.9552,0.9528,0.9503,0.948,0.946,0.9456,0.9438,0.9439,0.9407,0.9428,0.9382,0.9405,0.939,0.9382,0.938,0.9374,0.9396,0.9355,0.9291,0.9283,0.9372,0.9373,0.9374,0,0.9612,0.9571,0.9535,0.9524,0.9502,0.9485,0.9475,0.9457,0.944,0.9418,0.9407,0.9382,0.9367,0.9346,0.934,0.9356,0.9294,0.9315,0.9288,0.9288,0.9272,0.9273,0.9202,0.9267,0.9267,0.9267,0.9267,0,0.9553,0.9521,0.9516,0.9493,0.9457,0.9456,0.942,0.9411,0.9395,0.937,0.9375,0.9351,0.9346,0.9321,0.9316,0.9278,0.9272,0.9266,0.9265,0.9265,0.9265,0.9252,0.9255,0.9265,0.9265,0.9266,0.9266,0,0.9498,0.9494,0.9454,0.9438,0.9433,0.9407,0.9392,0.937,0.9365,0.9333,0.9325,0.9315,0.9286,0.9279,0.9244,0.9241,0.9196,0.9199,0.9203,0.9202,0.9175,0.9177,0.9092,0.9081,0.9155,0.9154,0.9154,0,0.9459,0.9435,0.9417,0.9401,0.9391,0.9366,0.935,0.9349,0.9332,0.9309,0.9289,0.9262,0.9239,0.9193,0.9181,0.9155,0.9156,0.9128,0.9151,0.9152,0.9153,0.9153,0.915,0.9122,0.9121,0.9121,0.912,0,0.9391,0.9391,0.9368,0.9346,0.9327,0.9309,0.9291,0.9278,0.9274,0.9255,0.9226,0.9209,0.9175,0.9147,0.9121,0.9109,0.9113,0.9114,0.9106,0.9103,0.9106,0.9103,0.9188,0.9115,0.9115,0.9116,0.9116,0.9116,0.9342,0.932,0.9305,0.928,0.9267,0.9251,0.923,0.9222,0.9199,0.9172,0.9173,0.9141,0.9124,0.9089,0.9077,0.9052,0.906,0.9049,0.9045,0.9042,0.9039,0.9113,0.9047,0.9047,0.9048,0.9048,0.9048,0,0.9272,0.9263,0.924,0.9217,0.9197,0.9206,0.9188,0.917,0.9143,0.9127,0.9106,0.9073,0.9047,0.9035,0.9009,0.8991,0.8992,0.8984,0.8983,0.8981,0.9034,0.9043,0.8983,0.8983,0.8983,0.8983,0.8983,0.8983,0.9233,0.9197,0.9196,0.9154,0.9145,0.9115,0.9104,0.9089,0.9077,0.9041,0.9019,0.9013,0.8998,0.8971,0.8947,0.8944,0.8933,0.8923,0.8921,0.897,0.8977,0.8983,0.8991,0.8922,0.8922,0.887,0.8869,0.8869]}]]